Simultaneous Nadir Overpasses (SNOs) Predictions

Prediction of SNOs between GOES-15 and TERRA Satellite Orbit:

Table of predicted SNOs for the next 14.0 days since TLE Epoch: 2/12/2022
Index Date Time (GOES-15) GOES-15 Lat,Lon TERRA Lat,Lon Distance(km) Time Diff (sec)
1 02/12/2022 06:46:15 -0.01,-128.06 0.49,-125.61 278.75 80
2 02/12/2022 19:04:50 0.00,-128.08 0.59,-130.77 305.91 80
3 02/14/2022 18:55:15 -0.00,-128.03 -0.05,-127.81 24.40 80
4 02/16/2022 18:43:00 0.00,-127.97 -0.69,-124.86 354.54 80
5 02/17/2022 07:04:23 -0.00,-127.92 -0.42,-130.04 240.89 80
6 02/19/2022 06:49:27 -0.00,-127.86 0.17,-127.08 88.94 80
7 02/19/2022 19:10:42 0.00,-127.87 0.90,-132.24 496.09 80
8 02/21/2022 06:37:11 -0.00,-127.79 0.77,-124.11 418.29 80
9 02/21/2022 18:58:26 0.00,-127.80 0.30,-129.27 166.91 80
10 02/23/2022 18:48:50 0.00,-127.73 -0.32,-126.31 161.44 80
11 02/24/2022 07:10:13 -0.00,-127.68 -0.79,-131.50 434.21 80
12 02/25/2022 18:36:34 0.00,-127.64 -0.94,-123.34 489.03 80
